Regional Weather Roundup
Issued by NWS Upton, NY

Current Version | Previous Version | Text Only | Print | Product List | Glossary Off
Versions: 1 2 3 4 5 6 7 8 9 10 11 12 13 14 15 16 17 18 19 20 21 22 23 24 25 26 27 28 29 30 31 32 33 34 35 36 37 38 39 40 41 42 43 44 45 46 47 48 49 50
000 ASUS41 KOKX 011904 RWROKX REGIONAL WEATHER ROUNDUP NATIONAL WEATHER SERVICE NEW YORK NY 300 PM EDT SAT OCT 01 2016 NOTE: "FAIR" INDICATES FEW OR NO CLOUDS BELOW 12,000 FEET WITH NO SIGNIFICANT WEATHER AND/OR OBSTRUCTIONS TO VISIBILITY. NYZ071-072-176-178-NJZ106-104-012000- NEW YORK CITY METRO AREA CITY SKY/WX TMP DP RH WIND PRES REMARKS Central Park CLOUDY 61 56 83 E5 30.20F LaGuardia APRT CLOUDY 64 57 78 NE16 30.17F Kennedy INTL CLOUDY 63 56 78 NE13 30.18F Newark/Liberty CLOUDY 63 57 81 NE13 30.17F Bronx Bot Gard N/A 61 55 82 N5 30.18S Wall St Helipt CLOUDY 64 59 82 NE14 30.17F Teterboro CLOUDY 63 55 77 NE6 30.16F $$ NYZ177-179-078>081-012000- LONG ISLAND NEW YORK CITY SKY/WX TMP DP RH WIND PRES REMARKS Farmingdale CLOUDY 61 57 87 NE10 30.18S MacArthur/ISP CLOUDY 60 59 96 N10 30.17R FOG Shirley CLOUDY 62 60 93 N6 30.17S Riverhead NOT AVBL Westhampton CLOUDY 63 58 83 NE12 30.18S Southampton N/A 64 61 88 NE6 30.13R Bridgehampton N/A 63 59 88 S2 30.01S East Hampton CLOUDY 63 58 86 NE7 30.15F Montauk N/A 63 59 87 NE9G22 30.16S $$ NYZ052-065-067-012000- HUDSON VALLEY CITY SKY/WX TMP DP RH WIND PRES REMARKS White Plains CLOUDY 60 55 83 NE6 30.18S Newburgh CLOUDY 57 57 100 CALM 30.22F FOG Montgomery CLOUDY 59 56 89 NE8 30.20F Poughkeepsie CLOUDY 59 55 87 N5 30.20F Albany CLOUDY 61 51 70 N6 30.23F $$ NJZ001-105-106-008-010-013-015-019>022-104-012000- NEW JERSEY CITY SKY/WX TMP DP RH WIND PRES REMARKS Newark/Liberty CLOUDY 63 57 81 NE13 30.17F Teterboro CLOUDY 63 55 77 NE6 30.16F Caldwell CLOUDY 61 58 90 E8 30.18F Morristown CLOUDY 61 57 88 E12 30.17F Somerville CLOUDY 62 57 83 VRB6 30.15F Linden NOT AVBL Sussex CLOUDY 58 56 93 NE8 30.19F Abdover N/A 58 56 93 NE5 30.18F Trenton CLOUDY 62 58 86 E12 30.14F Millville CLOUDY 65 65 100 E10 30.10F Atlantic City CLOUDY 64 62 93 NE10 30.12S FOG Wrightstown NOT AVBL Toms River CLOUDY 63 62 97 NE9 30.15F FOG Belmar CLOUDY 62 60 93 NE9 30.16F $$ PAZ047>061-062-071-012000- EASTERN PENNSYLVANIA CITY SKY/WX TMP DP RH WIND PRES REMARKS Philadelphia CLOUDY 64 60 87 NE8G20 30.13F Allentown CLOUDY 62 56 80 NE10 30.15F Scranton CLOUDY 64 57 78 E8 30.14F $$ CTZ002-004>006-009-010-012-RIZ004-006-007-MAZ004-011-015-012000- SOUTHERN NEW ENGLAND IN CT CITY SKY/WX TMP DP RH WIND PRES REMARKS Bradley INTL DRIZZLE 55 53 93 N10 30.22F FOG Hartford CLOUDY 56 54 93 N9 30.21S Danbury CLOUDY 57 54 89 E6 30.21S Wtrbury/Oxford CLOUDY 55 50 82 NE9G17 30.22R Bridgeport CLOUDY 62 54 74 N10 30.19R Meriden CLOUDY 58 53 84 N7 30.21R New Haven CLOUDY 58 54 86 N13 30.19S Chester CLOUDY 59 57 94 N9 30.18F Groton LGT RAIN 65 59 81 NE10 30.16S Wilimantic CLOUDY 60 55 83 NE12 30.20F IN RI CITY SKY/WX TMP DP RH WIND PRES REMARKS Providence LGT RAIN 60 58 92 N14 30.19S FOG Block Island CLOUDY 61 60 97 NE15G23 30.16R Westerly CLOUDY 63 56 78 N14G22 30.17R IN MA CITY SKY/WX TMP DP RH WIND PRES REMARKS Boston LGT RAIN 57 57 100 N16 30.24S VSB 1 Worcester CLOUDY 50 48 93 NE13G21 30.24R FOG Westfield CLOUDY 54 52 93 N12 30.23F Provincetown LGT RAIN 59 59 100 NE16 30.18F FOG Nantucket FOG 64 63 96 NE10 30.10F VSB 3/4 $$ ANZ330-335-338-340-345-350-353-355-012000- COASTAL MARINE OBSERVATIONS STATION/POSITION TIME SKY/WX TEMP WIND PRES VSBY WAVE AIR SEA DIR/SP/G HT/PER (UTC) (F) (DEG/KT/KT) (MB) (MI) (FT/S) NY HARB ENTRANCE 1750 62 68 40/ 14/ 17 1021.3 5/ 8 20S FIRE ISLAND 1750 63 67 50/ 19/ 23 1020.4 7/ 7 GREAT SOUTH BAY 1830 63 63 30/ 10/ 16 N/A 23 SSW MONTAUK P 1750 62 64 30/ 21/ 25 1020.6 7/ 7 15 E BARNEGAT LI 1830 69 N/A 7/ 8 HUDSON CANYON 1750 67 71 1019.8 7/ 9 KINGS POINT 1824 61 67 1021.7 EXECUTION ROCKS 1830 63 50/ 14/ 17 N/A CENTRAL LI SOUND NOT AVBL EASTERN LI SOUND NOT AVBL ROBBINS REEF 1824 62 50/ 13/ 16 1021.7 $$ >>>>>>>>>>>>>>>>>>>>>>>>>>>> KEY <<<<<<<<<<<<<<<<<<<<<<<<<<< > < > SKY/WX - Sky Condition/Present Weather < > TMP - Temperature in Fahrenheit < > DP - Dew Point in Fahrenheit < > RH - Relative Humidity in Percent < > WIND - Direction (from) and Speed in MPH < > PRES - Mean Sea Level Pressure (inches of Hg) < > WCI - Wind Chill Index < > VSB - VISIBILITY IN MILES < > HX - HEAT INDEX < > TC - TEMPERATURE IN CELSIUS < > VRB - VARIABLE WIND DIRECTION < > < >>>>>>>>>>>>>>>>>>>>>>>>>>>> KEY <<<<<<<<<<<<<<<<<<<<<<<<<<<

USA.gov is the U.S. government's official web portal to all federal, state and local government web resources and services.